Change the Weather History Date:

Tuesday, April 2, 2013

  Actual Average Record
Temperature  
Mean Temperature 24 °F -  
Max Temperature 30 °F 41 °F 60 °F (2009)
Min Temperature 19 °F 21 °F 19 °F (1997)
Degree Days  
Heating Degree Days 40    
Moisture  
Dew Point 15 °F    
Average Humidity 71    
Maximum Humidity 86    
Minimum Humidity 45    
Precipitation  
Precipitation 0.00 in - - ()
Sea Level Pressure  
Sea Level Pressure 29.76 in    
Wind  
Wind Speed 9 mph (West)    
Max Wind Speed 16 mph    
Max Gust Speed 30 mph    
Visibility 6 miles    
Events Snow    
Averages and records for this station are not official NWS values.
T = Trace of Precipitation, MM = Missing Value Source: NWS Daily Summary

Daily Weather History Graph

Daily Weather History Graph

Search for Another Location

Airport or City:

Trip Planner

Search our weather history database for the weather conditions in past years. The results will help you decide how hot, cold, wet, or windy it might be!

Date:

Astronomy

Apr. 02, 2013 Rise Set
Actual Time 6:25 AM EDT 7:14 PM EDT
Civil Twilight 5:55 AM EDT 7:44 PM EDT
Nautical Twilight 5:20 AM EDT 8:19 PM EDT
Astronomical Twilight 4:44 AM EDT 8:56 PM EDT
Moon 1:26 AM EDT (4/2) 11:03 AM EDT (4/2)
Length of Visible Light 13h 48m
Length of Day
12h 49m
Waning Gibbous, 56% of the Moon is Illuminated
Apr 2
Waning Gibbous
Apr 3
Last Quarter
Apr 10
New
Apr 18
First Quarter
Apr 25
Full

Hourly Weather History & Observations

Time (EDT) Temp. Windchill Dew Point Humidity Pressure Visibility Wind Dir Wind Speed Gust Speed Precip Events Conditions
12:52 AM 28.0 °F 16.1 °F 12.9 °F 53% 29.72 in 10.0 mi West 16.1 mph 25.3 mph 0.00 in   Overcast
1:40 AM 24.8 °F 12.9 °F 17.6 °F 74% 29.71 in 2.5 mi West 13.8 mph 24.2 mph 0.00 in Snow Light Snow
1:50 AM 24.8 °F 14.6 °F 19.4 °F 80% 29.71 in 1.5 mi West 10.4 mph 24.2 mph 0.00 in Snow Light Snow
1:52 AM 24.1 °F 13.7 °F 19.9 °F 84% 29.75 in 1.5 mi West 10.4 mph - 0.00 in Snow Light Snow
2:06 AM 24.8 °F 15.3 °F 17.6 °F 74% 29.71 in 3.0 mi West 9.2 mph - 0.00 in Snow Light Snow
2:23 AM 24.8 °F 15.3 °F 15.8 °F 69% 29.71 in 9.0 mi West 9.2 mph - 0.00 in   Overcast
3:52 AM 23.0 °F 18.4 °F 12.0 °F 63% 29.75 in 10.0 mi West 3.5 mph - N/A   Overcast
4:16 AM 21.2 °F 14.9 °F 12.2 °F 68% 29.71 in 10.0 mi West 4.6 mph - N/A   Mostly Cloudy
4:52 AM 21.0 °F 14.6 °F 12.9 °F 71% 29.76 in 10.0 mi Variable 4.6 mph - N/A   Mostly Cloudy
5:45 AM 21.2 °F - 15.8 °F 80% 29.72 in 10.0 mi Calm Calm - N/A   Overcast
5:52 AM 21.0 °F - 15.1 °F 78% 29.76 in 10.0 mi Calm Calm - N/A   Overcast
6:00 AM 19.4 °F 14.3 °F 15.8 °F 86% 29.72 in 10.0 mi SSE 3.5 mph - N/A   Overcast
6:12 AM 19.4 °F - 15.8 °F 86% 29.72 in 10.0 mi Calm Calm - N/A   Overcast
6:52 AM 21.0 °F - 16.0 °F 81% 29.77 in 10.0 mi Calm Calm - N/A   Overcast
7:20 AM 21.2 °F 16.4 °F 17.6 °F 86% 29.73 in 1.8 mi WNW 3.5 mph - 0.00 in Snow Light Snow
7:26 AM 21.2 °F 16.4 °F 17.6 °F 86% 29.74 in 0.8 mi West 3.5 mph - 0.00 in Snow Light Snow
7:32 AM 21.2 °F 14.9 °F 17.6 °F 86% 29.74 in 1.0 mi West 4.6 mph - 0.00 in Snow Light Snow
7:36 AM 21.2 °F 12.6 °F 15.8 °F 80% 29.74 in 1.2 mi West 6.9 mph - 0.00 in Snow Light Snow
7:43 AM 21.2 °F 13.6 °F 15.8 °F 80% 29.74 in 3.0 mi West 5.8 mph - 0.00 in Snow Light Snow
7:52 AM 21.0 °F 14.6 °F 16.0 °F 81% 29.78 in 3.0 mi West 4.6 mph - 0.00 in Snow Light Snow
8:14 AM 21.2 °F 10.1 °F 15.8 °F 80% 29.74 in 8.0 mi West 10.4 mph - 0.00 in Snow Light Snow
8:32 AM 21.2 °F 12.6 °F 15.8 °F 80% 29.75 in 4.0 mi West 6.9 mph - 0.00 in Snow Light Snow
8:52 AM 23.0 °F 13.1 °F 15.1 °F 72% 29.79 in 7.0 mi West 9.2 mph - 0.00 in Snow Light Snow
9:17 AM 21.2 °F 10.1 °F 14.0 °F 74% 29.75 in 9.0 mi WNW 10.4 mph 18.4 mph 0.00 in Snow Light Snow
9:42 AM 21.2 °F 10.1 °F 14.0 °F 74% 29.75 in 2.0 mi West 10.4 mph - 0.00 in Snow Light Snow
9:52 AM 21.9 °F 13.4 °F 14.0 °F 72% 29.80 in 4.0 mi West 6.9 mph - 0.00 in Snow Light Snow
10:52 AM 25.0 °F 14.8 °F 12.9 °F 60% 29.79 in 6.0 mi WSW 10.4 mph 20.7 mph 0.00 in Snow Light Snow
11:52 AM 25.0 °F 14.2 °F 12.0 °F 58% 29.78 in 10.0 mi West 11.5 mph 28.8 mph 0.00 in   Overcast
2:52 PM 28.9 °F 17.7 °F 10.0 °F 45% 29.73 in 10.0 mi WSW 15.0 mph 28.8 mph N/A   Overcast
3:52 PM 30.0 °F 19.5 °F 10.9 °F 45% 29.73 in 10.0 mi West 13.8 mph 20.7 mph N/A   Overcast
4:52 PM 28.9 °F 17.3 °F 10.9 °F 47% 29.74 in 10.0 mi West 16.1 mph 29.9 mph 0.00 in   Overcast
5:52 PM 28.0 °F 18.1 °F 12.0 °F 51% 29.78 in 10.0 mi West 11.5 mph 19.6 mph N/A   Overcast
6:52 PM 26.1 °F 16.2 °F 12.0 °F 55% 29.80 in 10.0 mi West 10.4 mph 18.4 mph N/A   Mostly Cloudy
7:52 PM 26.1 °F 18.4 °F 12.9 °F 58% 29.81 in 10.0 mi West 6.9 mph 16.1 mph 0.00 in   Overcast
8:52 PM 26.1 °F 16.8 °F 12.9 °F 58% 29.82 in 10.0 mi WSW 9.2 mph 17.3 mph N/A   Overcast
9:52 PM 27.0 °F 20.5 °F 14.0 °F 58% 29.83 in 10.0 mi Variable 5.8 mph - N/A   Overcast
10:52 PM 25.0 °F 16.3 °F 17.1 °F 72% 29.83 in 8.0 mi WSW 8.1 mph - 0.00 in Snow Light Snow
11:14 PM 24.8 °F 16.1 °F 17.6 °F 74% 29.78 in 6.0 mi WSW 8.1 mph - 0.00 in Snow Light Snow
11:28 PM 24.8 °F 15.3 °F 19.4 °F 80% 29.79 in 1.8 mi WSW 9.2 mph - 0.00 in Snow Light Snow
11:37 PM 24.8 °F 16.1 °F 19.4 °F 80% 29.79 in 1.2 mi West 8.1 mph - 0.00 in Snow Light Snow
11:42 PM 24.8 °F 16.9 °F 19.4 °F 80% 29.79 in 2.0 mi WSW 6.9 mph - 0.00 in Snow Light Snow